Weather in Vokhmenka

Russia / Kurgan Oblast     55°35′00″N   64°35′27″E
temp.,
°C
wind,
m/s
gust,
m/s
humid.,
%
clouds,
%
prec.,
mm/h
press.,
hPa
HPBL,
m
14 april, wed
wed1423:00+7ssw37915 0.0 1037135
02:00+6sw411915 0.0 1035251
05:00+6sw4129234 0.0 1035278
08:00+8wsw4128797 0.0 1034355
11:00+13wsw577298 0.0 1032518
14:00+16wsw566456 0.0 1031840
17:00+17wsw466335 0.0 1030873
20:00+12wsw35825 0.0 102963
15 april, thu
thu1523:00+10wsw358357 0.0 102973
02:00+9wsw358021 0.0 102883
05:00+7wsw35775 0.0 102871
08:00+10sw37695 0.0 1027184
11:00+15sw46495 0.0 1025515
14:00+17wsw56405 0.0 1024776
17:00+18wsw46505 0.0 1022935
20:00+12sw37665 0.0 102199
16 april, fri
fri1623:00+10wsw376568 0.0 1020103
02:00+9w3476100 0.0 101947
05:00+8wnw338599 0.0 101943
08:00+10nnw47810 0.0 1019317
11:00+9nne5776100 0.0 1021683
14:00+6ne5879100 0.0 1024684
17:00+8ene466474 0.0 10241099
20:00+6ne237032 0.0 102463
17 april, sat
sat1723:00+3ene26715 0.0 1025133
02:00+1e26785 0.0 1024113
05:000ese12773 0.0 102410
08:00+4w22620 0.0 1023215
11:00+8nw46475 0.0 10221422
14:00+10nw57385 0.0 10211779
17:00+10nw583870 0.0 10202111
20:00+6nw225873 0.0 102018
18 april, sun
sun1823:00+5nw2263100 0.0 101923
02:00+4wnw397058 0.0 1017215
05:00+2wnw411795 0.0 1017401
08:00+3wnw59745 0.0 1016716
11:00+4wnw7127790 0.3 10151290
14:00+4nnw9124581 0.5 10172315
17:00+1n8115798 0.8 10211754
20:00−2nne713500 0.1 10261389